Location: Golden Pond Observatory
(36.7667°N, 88.0167°W)
Time: 03:35:41
(UTC-06:00)

Tiangong 2 - Visible Passes

Search period start: 23 November 2017 00:00
Search period end: 03 December 2017 00:00
Orbit: 386 x 392 km, 42.8° (Epoch: 22 November)

Date Brightness Start Highest point End Pass type
(mag) Time Alt. Az. Time Alt. Az. Time Alt. Az.
24 Nov 4.3 05:38:47 10° S 05:40:22 13° SE 05:41:57 10° ESE visible
26 Nov 3.2 05:17:52 10° SSW 05:20:35 26° SE 05:23:18 10° E visible
27 Nov 4.1 04:22:52 14° SE 04:22:52 14° SE 04:24:19 10° ESE visible
27 Nov 1.0 05:55:49 10° WSW 05:59:01 87° NNW 06:02:14 10° ENE visible
28 Nov 1.7 05:00:29 48° S 05:00:49 51° SSE 05:03:56 10° ENE visible
29 Nov 1.4 05:37:51 25° W 05:39:24 50° NNW 05:42:32 10° ENE visible
30 Nov 3.0 04:42:41 27° ENE 04:42:41 27° ENE 04:44:19 10° ENE visible
30 Nov 2.3 06:15:23 10° WNW 06:18:13 28° N 06:21:04 10° NE visible
01 Dec 1.9 05:19:43 34° NNW 05:19:48 34° NNW 05:22:47 10° NE visible
02 Dec 4.3 04:24:20 11° ENE 04:24:20 11° ENE 04:24:33 10° ENE visible
02 Dec 2.5 05:56:38 14° NW 05:58:41 26° N 06:01:27 10° ENE visible
